SITRO-AIS 33

Last updated on Thu Nov 21 2024 00:03:40 GMT+0000 (Coordinated Universal Time)

1 59055U 24039E 24325.60658794 .00065083 00000+0 14245-2 0 9992 2 59055 97.4082 288.0162 0014845 36.8062 323.4202 15.43789552 40582
UTC large
Height (km)
Speed (km/s)
/
Latitude / Longitude
Inclination (degrees)
Orbital Period (minutes)
Azimuth
Elevation
Range (km)
Doppler Factor

Next 0 passes for location: London (51.5072 / 0.1276)

Sorry there are no passes over London.